Location: Unspecified
(38.0989°N, 0.6729°W)
Time: 11:52:22
(UTC+02:00)

Hubble Space Telescope - Visible Passes

Search period start: 20 August 2017 00:00
Search period end: 30 August 2017 00:00
Orbit: 538 x 542 km, 28.5° (Epoch: 19 August)

Date Brightness Start Highest point End Pass type
(mag) Time Alt. Az. Time Alt. Az. Time Alt. Az.
20 Aug 2.3 06:17:18 16° SSW 06:19:08 21° S 06:22:17 10° SE visible
21 Aug 2.3 06:07:49 19° SSW 06:08:56 21° S 06:12:05 10° SE visible
22 Aug 2.3 05:58:24 20° SSW 05:58:44 21° S 06:01:51 10° SE visible
23 Aug 2.4 05:49:02 19° S 05:49:02 19° S 05:51:33 10° SE visible
24 Aug 2.8 05:39:47 16° SSE 05:39:47 16° SSE 05:41:13 10° SE visible
25 Aug 3.3 05:30:37 11° SSE 05:30:37 11° SSE 05:30:47 10° SSE visible
